Weather History for Ft. Stewart, GA

Change the Weather History Date:

Tuesday, October 22, 2013

  Actual Average Record
Temperature  
Mean Temperature 65 °F -  
Max Temperature 68 °F 78 °F 88 °F (1993)
Min Temperature 62 °F 56 °F 38 °F (2011)
Growing Degree Days 15 (Base 50)    
Moisture  
Dew Point 64 °F    
Average Humidity 97    
Maximum Humidity 100    
Minimum Humidity 88    
Precipitation  
Precipitation 0.08 in - - ()
Sea Level Pressure  
Sea Level Pressure 29.91 in    
Wind  
Wind Speed 2 mph (North)    
Max Wind Speed 7 mph    
Max Gust Speed -    
Visibility 10 miles    
Events Rain    
Averages and records for this station are not official NWS values.
T = Trace of Precipitation, MM = Missing Value Source: NWS Daily Summary

Daily Weather History Graph

Daily Weather History Graph

Search for Another Location

Airport:

Trip Planner

Search our weather history database for the weather conditions in past years. The results will help you decide how hot, cold, wet, or windy it might be!

Date:

Astronomy

Oct. 22, 2013 Rise Set
Actual Time 7:34 AM EDT 6:45 PM EDT
Civil Twilight 7:10 AM EDT 7:10 PM EDT
Nautical Twilight 6:41 AM EDT 7:39 PM EDT
Astronomical Twilight 6:13 AM EDT 8:07 PM EDT
Moon 9:34 PM EDT (10/22) 10:53 AM EDT (10/22)
Length of Visible Light 12h 00m
Length of Day
11h 10m
Waning Gibbous, 87% of the Moon is Illuminated
Oct 22
Waning Gibbous
Oct 26
Last Quarter
Nov 3
New
Nov 10
First Quarter
Nov 17
Full

Hourly Weather History & Observations

Time (EDT) Temp. Dew Point Humidity Pressure Visibility Wind Dir Wind Speed Gust Speed Precip Events Conditions
12:58 AM 63.5 °F 63.5 °F 100% 30.03 in 10.0 mi Calm Calm - N/A   Overcast
1:38 AM 62.6 °F 62.6 °F 100% 30.02 in 9.0 mi NNW 4.6 mph - N/A   Overcast
1:48 AM 62.6 °F 62.6 °F 100% 30.02 in 10.0 mi North 1.2 mph - N/A   Mostly Cloudy
1:58 AM 62.8 °F 62.8 °F 100% 30.02 in 10.0 mi North 2.3 mph - N/A   Overcast
5:58 AM 62.6 °F 62.6 °F 100% 29.98 in 10.0 mi North 3.5 mph - N/A   Mostly Cloudy
6:58 AM 63.1 °F 63.1 °F 100% 29.99 in 10.0 mi NNW 2.3 mph - N/A   Overcast
7:58 AM 62.6 °F 62.6 °F 100% 29.97 in 10.0 mi NNW 2.3 mph - N/A   Mostly Cloudy
8:58 AM 62.6 °F 62.6 °F 100% 29.97 in 10.0 mi NNE 2.3 mph - N/A Rain Light Rain
9:01 AM 62.6 °F 62.6 °F 100% 29.97 in 10.0 mi Calm Calm - N/A   Partly Cloudy
9:14 AM 62.6 °F 62.6 °F 100% 29.97 in 10.0 mi North 2.3 mph - N/A   Mostly Cloudy
9:58 AM 64.4 °F 62.6 °F 94% 29.97 in 10.0 mi East 2.3 mph - N/A   Mostly Cloudy
10:15 AM 64.4 °F 62.6 °F 94% 29.97 in 10.0 mi North 1.2 mph - N/A Rain Light Rain
10:58 AM 65.5 °F 63.1 °F 92% 29.97 in 10.0 mi NNE 1.2 mph - 0.00 in   Light Drizzle
11:01 AM 66.2 °F 62.6 °F 88% 29.96 in 10.0 mi ENE 3.5 mph - N/A   Clear
11:05 AM 66.2 °F 62.6 °F 88% 29.96 in 10.0 mi NNE 1.2 mph - N/A   Light Drizzle
11:09 AM 66.2 °F 62.6 °F 88% 29.96 in 10.0 mi Calm Calm - N/A   Light Drizzle
11:20 AM 66.2 °F 64.4 °F 94% 29.95 in 10.0 mi NNE 1.2 mph - N/A   Clear
11:34 AM 66.2 °F 64.4 °F 94% 29.95 in 10.0 mi NE 1.2 mph - N/A   Mostly Cloudy
11:40 AM 66.2 °F 64.4 °F 94% 29.95 in 10.0 mi NNE 2.3 mph - N/A Rain Light Rain
11:55 AM 66.2 °F 64.4 °F 94% 29.95 in 10.0 mi NNE 1.2 mph - N/A   Light Drizzle
11:56 AM 66.2 °F 64.4 °F 94% 29.94 in 10.0 mi NNE 2.3 mph - N/A   Overcast
11:58 AM 66.2 °F 64.4 °F 94% 29.95 in 10.0 mi NE 3.5 mph - 0.00 in   Overcast
12:58 PM 67.5 °F 64.2 °F 89% 29.96 in 10.0 mi NNW 3.5 mph - N/A   Overcast
1:10 PM 68.0 °F 64.4 °F 88% 29.95 in 10.0 mi NW 3.5 mph - N/A   Light Drizzle
1:30 PM 68.0 °F 64.4 °F 88% 29.93 in 10.0 mi NNE 1.2 mph - N/A Rain Light Rain
1:35 PM 68.0 °F 64.4 °F 88% 29.92 in 10.0 mi Variable 3.5 mph - N/A Rain Light Rain
1:45 PM 68.0 °F 64.4 °F 88% 29.90 in 10.0 mi ENE 4.6 mph - N/A Rain Light Rain
1:56 PM 68.0 °F 66.2 °F 94% 29.90 in 10.0 mi ENE 3.5 mph - N/A   Scattered Clouds
1:58 PM 68.0 °F 66.2 °F 94% 29.91 in 10.0 mi ENE 3.5 mph - 0.00 in   Scattered Clouds
1:59 PM 68.0 °F 66.2 °F 94% 29.90 in 10.0 mi East 4.6 mph - N/A   Light Drizzle
2:32 PM 68.0 °F 64.4 °F 88% 29.89 in 10.0 mi ENE 2.3 mph - N/A   Mostly Cloudy
2:53 PM 68.0 °F 64.4 °F 88% 29.88 in 10.0 mi North 2.3 mph - N/A Rain Light Rain
2:58 PM 68.5 °F 65.3 °F 89% 29.89 in 10.0 mi NNW 3.5 mph - 0.00 in Rain Light Rain
3:58 PM 67.8 °F 66.0 °F 94% 29.87 in 10.0 mi Calm Calm - 0.00 in Rain Light Rain
4:58 PM 67.3 °F 67.1 °F 99% 29.87 in 10.0 mi North 6.9 mph - 0.01 in   Light Drizzle
5:09 PM 66.2 °F 66.2 °F 100% 29.87 in 10.0 mi NNW 5.8 mph - N/A   Mostly Cloudy
5:12 PM 66.2 °F 66.2 °F 100% 29.88 in 10.0 mi NNW 5.8 mph - N/A   Light Drizzle
5:32 PM 66.2 °F 66.2 °F 100% 29.88 in 10.0 mi NNW 4.6 mph - N/A Rain Light Rain
5:37 PM 66.2 °F 66.2 °F 100% 29.88 in 10.0 mi NNW 3.5 mph - N/A Rain Light Rain
5:42 PM 66.2 °F 66.2 °F 100% 29.88 in 10.0 mi NNW 3.5 mph - N/A Rain Light Rain
5:58 PM 65.5 °F 65.5 °F 100% 29.87 in 10.0 mi North 1.2 mph - 0.01 in Rain Light Rain
6:03 PM 64.4 °F 64.4 °F 100% 29.87 in 10.0 mi Calm Calm - N/A Rain Light Rain
6:13 PM 64.4 °F 64.4 °F 100% 29.87 in 10.0 mi North 2.3 mph - N/A Rain Light Rain
6:18 PM 64.4 °F 64.4 °F 100% 29.87 in 10.0 mi North 1.2 mph - N/A Rain Light Rain
6:58 PM 64.4 °F 64.4 °F 100% 29.88 in 10.0 mi North 2.3 mph - 0.02 in Rain Light Rain
7:44 PM 64.4 °F 64.4 °F 100% 29.88 in 10.0 mi NNW 2.3 mph - N/A   Overcast
7:49 PM 64.4 °F 64.4 °F 100% 29.88 in 10.0 mi NNW 5.8 mph - N/A   Overcast
7:57 PM 64.4 °F 64.4 °F 100% 29.88 in 10.0 mi NNW 5.8 mph - N/A Rain Light Rain
7:58 PM 64.4 °F 64.4 °F 100% 29.89 in 10.0 mi NNW 5.8 mph - 0.00 in Rain Light Rain
8:13 PM 64.4 °F 64.4 °F 100% 29.88 in 10.0 mi NNW 6.9 mph - N/A Rain Light Rain
8:23 PM 64.4 °F 64.4 °F 100% 29.88 in 9.0 mi NNW 6.9 mph - N/A Rain Rain
8:56 PM 62.6 °F 62.6 °F 100% 29.88 in 10.0 mi NE 4.6 mph - N/A   Overcast
8:58 PM 62.6 °F 62.6 °F 100% 29.89 in 10.0 mi North 2.3 mph - 0.03 in   Overcast
8:59 PM 62.6 °F 62.6 °F 100% 29.88 in 10.0 mi North 3.5 mph - N/A Rain Light Rain
9:09 PM 62.6 °F 62.6 °F 100% 29.88 in 8.0 mi North 2.3 mph - N/A Rain Light Rain
9:29 PM 62.6 °F 62.6 °F 100% 29.88 in 8.0 mi Calm Calm - N/A Rain Light Rain
9:35 PM 62.6 °F 62.6 °F 100% 29.88 in 10.0 mi Calm Calm - N/A   Overcast
9:40 PM 62.6 °F 62.6 °F 100% 29.88 in 10.0 mi Calm Calm - N/A   Overcast
9:41 PM 62.6 °F 62.6 °F 100% 29.88 in 10.0 mi Calm Calm - N/A Rain Light Rain
9:46 PM 62.6 °F 62.6 °F 100% 29.88 in 9.0 mi NNE 2.3 mph - N/A Rain Light Rain
9:51 PM 62.6 °F 62.6 °F 100% 29.88 in 6.0 mi North 2.3 mph - N/A Rain Light Rain
9:58 PM 62.1 °F 62.1 °F 100% 29.89 in 5.0 mi Calm Calm - 0.01 in Rain Light Rain
10:07 PM 62.6 °F 62.6 °F 100% 29.88 in 8.0 mi Calm Calm - N/A   Overcast
10:17 PM 62.6 °F 62.6 °F 100% 29.88 in 10.0 mi NNE 1.2 mph - N/A   Overcast
10:58 PM 62.1 °F 62.1 °F 100% 29.89 in 10.0 mi Calm Calm - 0.00 in   Overcast
11:28 PM 62.6 °F 62.6 °F 100% 29.86 in 9.0 mi ESE 5.8 mph - N/A   Overcast
11:38 PM 62.6 °F 62.6 °F 100% 29.85 in 10.0 mi East 2.3 mph - N/A   Overcast
11:58 PM 62.1 °F 62.1 °F 100% 29.86 in 10.0 mi NNE 1.2 mph - N/A   Overcast